Flag for Australia

Past Weather in Canberra, Australian Capital Territory, Australia — Yesterday and Last 2 Weeks

Now
41 °F

Passing clouds.


Feels Like: 38 °F
Forecast: 54 / 36 °F
Wind: 5 mph from South

Location: Canberra Airport

Current Time: Jul 15, 2020 at 10:06:17 pm

Latest Report: Jul 15, 2020 at 9:30 pm


Visibility: N/A

Pressure: 30.12 "Hg (28.06 "Hg at 577m altitude)

Humidity: 81%

Dew Point: 36 °F

Location of CanberraLocation

Past Weather in Canberra — Graph

°F

Canberra Temperature Yesterday

Maximum temperature yesterday: 54 °F (at 12:00 pm)
Minimum temperature yesterday: 43 °F (at 1:00 am)
Average temperature yesterday: 48 °F

High & Low Weather Summary for the Past Weeks

 TemperatureHumidityPressure
High59 °F (Jul 1, 3:00 pm)100% (Jun 30, 9:30 pm)30.45 "Hg (Jun 30, 9:30 pm)
Low28 °F (Jul 7, 5:19 am)42% (Jul 10, 3:30 pm)29.92 "Hg (Jul 2, 5:00 am)
Average43 °F85%30.18 "Hg
* Reported Jun 30 9:00 pm — Jul 15 9:00 pm, Canberra. Weather by CustomWeather, © 2020

Note: Actual official high and low records may vary slightly from our data, if they occured in-between our weather recording intervals... More about our weather records

Canberra Weather History for the Previous 24 Hours

Scroll right to see more
 ConditionsComfort  
Time TempWeatherWind HumidityBarometerVisibility
9:00 pm
Wed, Jul 15
43 °FClear.8 mph81%30.12 "HgN/A
8:30 pm43 °FPassing clouds.6 mph81%30.12 "HgN/A
8:00 pm46 °FPassing clouds.10 mph76%30.12 "HgN/A
7:30 pm45 °FPassing clouds.8 mph81%30.12 "HgN/A
7:00 pm43 °FClear.8 mph81%30.12 "HgN/A
6:30 pm45 °FPassing clouds.8 mph76%30.09 "HgN/A
6:00 pm48 °FMostly cloudy.10 mph71%30.09 "HgN/A
5:30 pm50 °FOvercast.8 mph62%30.09 "HgN/A
5:00 pm50 °FOvercast.10 mph62%30.09 "HgN/A
4:30 pm52 °FOvercast.8 mph58%30.09 "HgN/A
4:00 pm52 °FMore clouds than sun.14 mph54%30.09 "HgN/A
3:30 pm52 °FBroken clouds.17 mph54%30.09 "HgN/A
3:00 pm54 °FPartly sunny.14 mph51%30.09 "HgN/A
2:30 pm54 °FPartly sunny.15 mph54%30.09 "HgN/A
2:00 pm52 °FOvercast.18 mph58%30.09 "HgN/A
1:30 pm52 °FPartly sunny.15 mph58%30.09 "HgN/A
1:00 pm52 °FOvercast.20 mph58%30.09 "HgN/A
12:30 pm50 °FOvercast.20 mph62%30.12 "HgN/A
12:00 pm50 °FScattered clouds.22 mph62%30.12 "HgN/A
11:30 am50 °FPartly sunny.20 mph62%30.12 "HgN/A
11:00 am52 °FOvercast.21 mph62%30.15 "HgN/A
10:30 am48 °FOvercast.21 mph66%30.15 "HgN/A
10:00 am50 °FOvercast.21 mph67%30.15 "HgN/A
9:30 am48 °FMostly cloudy.20 mph66%30.15 "HgN/A
9:00 am46 °FOvercast.18 mph66%30.15 "HgN/A
8:30 am45 °FMostly cloudy.9 mph76%30.15 "HgN/A
8:00 am45 °FBroken clouds.15 mph71%30.15 "HgN/A
7:30 am45 °FPartly sunny.15 mph71%30.15 "HgN/A
7:00 am45 °FOvercast.17 mph71%30.15 "HgN/A
6:30 am45 °FMostly cloudy.18 mph76%30.15 "HgN/A
6:24 am45 °FPartly cloudy.17 mph71%30.15 "HgN/A
5:30 am45 °FPassing clouds.12 mph71%30.15 "HgN/A
5:00 am45 °FPassing clouds.18 mph71%30.15 "HgN/A
4:30 am45 °FClear.21 mph76%30.12 "HgN/A
4:00 am45 °FPassing clouds.20 mph76%30.12 "HgN/A
3:30 am45 °FPassing clouds.20 mph81%30.15 "HgN/A
3:00 am46 °FPassing clouds.16 mph71%30.15 "HgN/A
2:30 am46 °FPassing clouds.20 mph76%30.15 "HgN/A
2:00 am46 °FPassing clouds.16 mph76%30.15 "HgN/A
1:30 am45 °FClear.15 mph81%30.15 "HgN/A
1:00 am46 °FClear.17 mph76%30.15 "HgN/A
12:30 am46 °FClear.18 mph71%30.15 "HgN/A
12:00 am46 °FClear.17 mph76%30.18 "HgN/A
11:30 pm
Tue, Jul 14
45 °FClear.13 mph81%30.18 "HgN/A
11:00 pm46 °FClear.15 mph76%30.18 "HgN/A
10:30 pm46 °FClear.20 mph76%30.18 "HgN/A
10:00 pm46 °FPassing clouds.16 mph76%30.18 "HgN/A
Weather by CustomWeather, © 2020

See weather overview